contact:dominique.lefevre@mio.osupytheas.fr, maurice.libes@osupytheas.fr, didier.mallarino@osupytheas.fr
Project:EMSO http://www.emso-fr.org/EMSO-France
Depth: 2436.0 m
Title:EMSO Ligure Ouest : Data MII capteur AQUADOPP
Date,Latitude,Longitude,X_East,Y_North,Z_Up,Amplitude_X,Amplitude_Y,Amplitude_Z,Batterie,SoundSpeed,Heading,Pitch,Roll,Pressure,TIS,Speed,Direction
, degrees North, degrees East, m.s-1, m.s-1,m.s-1, 1, 1, 1, Volt, m.s-1, degree, degree, degree, dbar, degree_C, m.s-1, degree
2020-08-05T00:04:03,42.805,6.029,-0.064,-0.01,-0.035,104.0,106.0,103.0,13.4,1505.2,327.6,-0.7,1.8,2470.386,13.3,0.064,261.1
2020-08-05T00:07:03,42.805,6.029,-0.075,-0.008,-0.026,104.0,104.0,101.0,13.4,1505.3,326.1,-0.6,1.8,2470.431,13.31,0.075,263.9
2020-08-05T00:10:03,42.805,6.029,-0.055,0.003,0.018,104.0,106.0,103.0,13.4,1505.3,326.0,-0.7,1.8,2470.375,13.31,0.055,273.1
2020-08-05T00:13:03,42.805,6.029,-0.069,-0.004,-0.009,103.0,105.0,102.0,13.4,1505.3,323.0,-0.7,1.8,2470.382,13.32,0.069,266.7
2020-08-05T00:16:03,42.805,6.029,-0.08,-0.009,-0.023,105.0,104.0,102.0,13.3,1505.3,326.0,-0.7,1.8,2470.368,13.32,0.08,263.6
2020-08-05T00:19:03,42.805,6.029,-0.077,-0.015,-0.002,105.0,105.0,101.0,13.4,1505.3,324.7,-0.7,1.9,2470.395,13.32,0.078,259.0
2020-08-05T00:22:03,42.805,6.029,-0.069,-0.027,-0.01,105.0,105.0,101.0,13.3,1505.3,327.3,-0.7,1.8,2470.375,13.32,0.074,248.6
2020-08-05T00:25:03,42.805,6.029,-0.054,-0.016,-0.015,104.0,105.0,101.0,13.3,1505.3,323.3,-0.7,1.8,2470.392,13.32,0.056,253.5
2020-08-05T00:28:03,42.805,6.029,-0.052,-0.021,-0.008,105.0,105.0,103.0,13.4,1505.3,325.1,-0.7,1.8,2470.359,13.32,0.056,248.0
2020-08-05T00:31:03,42.805,6.029,-0.051,-0.006,0.007,104.0,106.0,102.0,13.4,1505.3,325.6,-0.7,1.8,2470.36,13.32,0.051,263.3
2020-08-05T00:34:03,42.805,6.029,-0.062,-0.033,-0.03,104.0,108.0,102.0,13.4,1505.3,323.2,-0.7,1.9,2470.372,13.32,0.07,242.0
2020-08-05T00:37:03,42.805,6.029,-0.066,0.0,-0.006,106.0,106.0,102.0,13.3,1505.3,327.0,-0.7,1.8,2470.363,13.32,0.065,270.0
2020-08-05T00:40:03,42.805,6.029,-0.081,-0.02,-0.03,104.0,106.0,101.0,13.4,1505.3,322.9,-0.7,1.8,2470.323,13.32,0.083,256.1
2020-08-05T00:43:03,42.805,6.029,-0.075,-0.02,-0.002,104.0,104.0,101.0,13.4,1505.3,324.9,-0.7,1.8,2470.291,13.32,0.077,255.1
2020-08-05T00:46:03,42.805,6.029,-0.049,-0.023,-0.004,105.0,106.0,102.0,13.4,1505.3,327.9,-0.7,1.8,2470.36,13.32,0.054,244.9
2020-08-05T00:49:03,42.805,6.029,-0.07,-0.022,-0.053,104.0,105.0,102.0,13.4,1505.3,324.6,-0.7,1.8,2470.333,13.32,0.073,252.6
2020-08-05T00:52:03,42.805,6.029,-0.09,-0.006,-0.029,105.0,106.0,102.0,13.4,1505.3,327.1,-0.7,1.8,2470.362,13.32,0.09,266.2
2020-08-05T00:55:03,42.805,6.029,-0.053,0.0,0.028,104.0,106.0,102.0,13.3,1505.3,323.4,-0.7,1.8,2470.324,13.32,0.053,270.0
2020-08-05T00:58:03,42.805,6.029,-0.063,-0.02,-0.012,105.0,106.0,102.0,13.3,1505.3,324.7,-0.7,1.8,2470.318,13.32,0.066,252.4
2020-08-05T01:04:03,42.805,6.029,-0.098,-0.017,-0.072,107.0,109.0,104.0,13.4,1505.2,323.5,-0.7,1.8,2470.401,13.3,0.099,260.2
2020-08-05T01:07:03,42.805,6.029,-0.077,-0.006,-0.001,104.0,106.0,101.0,13.3,1505.3,325.4,-0.7,1.9,2470.411,13.31,0.077,265.5
2020-08-05T01:10:03,42.805,6.029,-0.065,-0.01,0.001,104.0,106.0,103.0,13.4,1505.3,325.3,-0.7,1.9,2470.362,13.32,0.065,261.3
2020-08-05T01:13:03,42.805,6.029,-0.045,0.0,-0.016,104.0,106.0,101.0,13.4,1505.3,326.6,-0.7,1.8,2470.326,13.32,0.045,270.0
2020-08-05T01:16:03,42.805,6.029,-0.067,-0.008,-0.014,104.0,106.0,102.0,13.4,1505.3,324.0,-0.7,1.8,2470.309,13.32,0.067,263.2
2020-08-05T01:19:03,42.805,6.029,-0.067,-0.018,-0.002,104.0,106.0,101.0,13.3,1505.3,324.8,-0.7,1.8,2470.344,13.32,0.069,255.0
2020-08-05T01:22:03,42.805,6.029,-0.066,-0.008,-0.007,103.0,105.0,102.0,13.4,1505.3,326.4,-0.7,1.8,2470.338,13.32,0.066,263.1
2020-08-05T01:25:03,42.805,6.029,-0.052,0.009,0.01,104.0,105.0,103.0,13.4,1505.3,325.6,-0.7,1.8,2470.32,13.32,0.052,279.8
2020-08-05T01:28:03,42.805,6.029,-0.068,-0.003,-0.012,105.0,106.0,102.0,13.4,1505.3,327.7,-0.7,1.8,2470.312,13.32,0.068,267.5
2020-08-05T01:31:03,42.805,6.029,-0.07,0.013,-0.011,104.0,105.0,101.0,13.4,1505.3,327.0,-0.7,1.8,2470.322,13.32,0.071,280.5
2020-08-05T01:34:03,42.805,6.029,-0.065,-0.006,-0.022,104.0,107.0,101.0,13.4,1505.3,327.8,-0.7,1.8,2470.326,13.32,0.065,264.7
2020-08-05T01:37:03,42.805,6.029,-0.072,-0.022,-0.024,104.0,105.0,101.0,13.3,1505.3,325.7,-0.7,1.8,2470.287,13.32,0.075,253.0
2020-08-05T01:40:03,42.805,6.029,-0.054,-0.004,0.007,104.0,106.0,103.0,13.3,1505.3,326.7,-0.7,1.8,2470.363,13.32,0.054,265.8
2020-08-05T01:43:03,42.805,6.029,-0.07,0.002,-0.021,105.0,106.0,102.0,13.4,1505.3,326.3,-0.7,1.8,2470.295,13.32,0.07,271.6
2020-08-05T01:46:03,42.805,6.029,-0.067,-0.015,-0.019,105.0,107.0,101.0,13.4,1505.3,325.3,-0.7,1.8,2470.277,13.32,0.068,257.4
2020-08-05T01:49:03,42.805,6.029,-0.063,0.008,0.002,105.0,106.0,102.0,13.4,1505.3,328.0,-0.7,1.8,2470.322,13.32,0.063,277.2
2020-08-05T01:52:03,42.805,6.029,-0.071,0.0,-0.025,105.0,105.0,101.0,13.4,1505.3,324.7,-0.7,1.8,2470.262,13.32,0.07,270.0
2020-08-05T01:55:03,42.805,6.029,-0.06,-0.009,-0.011,105.0,106.0,102.0,13.3,1505.3,328.5,-0.7,1.8,2470.302,13.32,0.06,261.5
2020-08-05T01:58:03,42.805,6.029,-0.044,0.001,0.014,105.0,106.0,102.0,13.4,1505.3,327.1,-0.7,1.8,2470.303,13.32,0.044,271.3
2020-08-05T02:04:03,42.805,6.029,-0.022,0.005,-0.01,105.0,106.0,103.0,13.3,1505.2,326.1,-0.7,1.8,2470.344,13.3,0.022,282.8
2020-08-05T02:07:03,42.805,6.029,-0.057,0.001,-0.024,106.0,107.0,101.0,13.4,1505.3,328.0,-0.7,1.8,2470.316,13.31,0.057,271.0
2020-08-05T02:10:03,42.805,6.029,-0.036,-0.005,-0.008,104.0,106.0,102.0,13.4,1505.3,324.1,-0.7,1.8,2470.328,13.32,0.036,262.1
2020-08-05T02:13:03,42.805,6.029,-0.032,0.008,0.025,105.0,107.0,102.0,13.3,1505.3,325.5,-0.7,1.8,2470.326,13.32,0.032,284.0
2020-08-05T02:16:03,42.805,6.029,-0.044,0.012,0.001,105.0,107.0,101.0,13.4,1505.3,324.6,-0.7,1.8,2470.329,13.32,0.045,285.3
2020-08-05T02:19:03,42.805,6.029,-0.047,0.001,0.013,104.0,107.0,101.0,13.3,1505.3,327.9,-0.7,1.8,2470.309,13.32,0.047,271.2
2020-08-05T02:22:03,42.805,6.029,-0.041,0.002,0.006,106.0,107.0,101.0,13.4,1505.3,328.5,-0.7,1.8,2470.25,13.32,0.041,272.8
2020-08-05T02:25:03,42.805,6.029,-0.063,0.003,-0.008,104.0,107.0,102.0,13.4,1505.3,326.7,-0.7,1.8,2470.294,13.33,0.063,272.7
2020-08-05T02:28:03,42.805,6.029,-0.065,0.011,-0.016,103.0,107.0,101.0,13.3,1505.3,328.2,-0.7,1.8,2470.301,13.33,0.065,279.6
2020-08-05T02:31:03,42.805,6.029,-0.038,-0.001,0.01,105.0,107.0,102.0,13.4,1505.3,326.2,-0.7,1.8,2470.257,13.32,0.038,268.5
2020-08-05T02:34:03,42.805,6.029,-0.046,0.008,0.018,106.0,107.0,102.0,13.3,1505.3,324.6,-0.7,1.8,2470.296,13.33,0.046,279.9
2020-08-05T02:37:03,42.805,6.029,-0.043,0.0,0.008,105.0,106.0,102.0,13.3,1505.3,326.3,-0.7,1.8,2470.297,13.33,0.043,270.0
2020-08-05T02:40:03,42.805,6.029,-0.072,-0.003,-0.019,104.0,107.0,102.0,13.4,1505.3,323.7,-0.7,1.8,2470.304,13.33,0.072,267.6
2020-08-05T02:43:03,42.805,6.029,-0.073,-0.013,-0.021,105.0,105.0,102.0,13.4,1505.3,326.0,-0.7,1.8,2470.292,13.32,0.074,259.9
2020-08-05T02:46:03,42.805,6.029,-0.044,0.002,0.009,104.0,106.0,101.0,13.3,1505.3,324.5,-0.7,1.8,2470.297,13.32,0.044,272.6
2020-08-05T02:49:03,42.805,6.029,-0.063,0.006,-0.03,104.0,106.0,102.0,13.4,1505.3,327.3,-0.7,1.8,2470.284,13.33,0.063,275.4
2020-08-05T02:52:03,42.805,6.029,-0.068,-0.004,-0.037,104.0,106.0,102.0,13.4,1505.3,322.9,-0.7,1.8,2470.255,13.33,0.068,266.6
2020-08-05T02:55:03,42.805,6.029,-0.075,0.002,-0.012,104.0,106.0,104.0,13.4,1505.3,324.5,-0.7,1.8,2470.325,13.33,0.075,271.5
2020-08-05T02:58:03,42.805,6.029,-0.075,0.007,-0.033,104.0,105.0,101.0,13.4,1505.3,326.8,-0.7,1.8,2470.27,13.33,0.075,275.3
2020-08-05T03:04:03,42.805,6.029,-0.041,0.006,-0.013,104.0,107.0,101.0,13.4,1505.3,327.8,-0.7,1.8,2470.328,13.31,0.041,278.3
2020-08-05T03:07:03,42.805,6.029,-0.054,0.005,0.021,105.0,106.0,101.0,13.3,1505.3,325.1,-0.7,1.8,2470.282,13.31,0.054,275.3
2020-08-05T03:10:03,42.805,6.029,-0.041,0.017,0.013,105.0,107.0,101.0,13.3,1505.3,326.5,-0.7,1.9,2470.273,13.32,0.044,292.5
2020-08-05T03:13:03,42.805,6.029,-0.06,0.012,-0.021,106.0,105.0,101.0,13.4,1505.3,325.9,-0.7,1.8,2470.275,13.32,0.061,281.3
2020-08-05T03:16:03,42.805,6.029,-0.062,0.0,-0.015,104.0,106.0,102.0,13.3,1505.3,326.8,-0.7,1.8,2470.32,13.32,0.061,270.0
2020-08-05T03:19:03,42.805,6.029,-0.06,0.001,-0.008,105.0,106.0,102.0,13.4,1505.3,323.6,-0.7,1.8,2470.321,13.32,0.06,271.0
2020-08-05T03:22:03,42.805,6.029,-0.046,-0.01,-0.017,104.0,107.0,101.0,13.4,1505.3,325.6,-0.7,1.8,2470.28,13.32,0.047,257.7
2020-08-05T03:25:03,42.805,6.029,-0.051,-0.009,-0.008,104.0,106.0,102.0,13.4,1505.3,322.9,-0.7,1.8,2470.326,13.33,0.051,260.0
2020-08-05T03:28:03,42.805,6.029,-0.071,-0.014,-0.039,104.0,107.0,101.0,13.4,1505.3,326.5,-0.7,1.8,2470.34,13.33,0.072,258.8
2020-08-05T03:31:03,42.805,6.029,-0.064,0.014,-0.006,105.0,108.0,101.0,13.4,1505.3,324.2,-0.7,1.8,2470.268,13.33,0.065,282.3
2020-08-05T03:34:03,42.805,6.029,-0.049,0.004,-0.008,104.0,109.0,102.0,13.4,1505.3,327.6,-0.7,1.9,2470.326,13.33,0.049,274.7
2020-08-05T03:37:03,42.805,6.029,-0.034,-0.001,-0.012,104.0,108.0,102.0,13.4,1505.3,322.9,-0.7,1.8,2470.283,13.33,0.034,268.3
2020-08-05T03:40:03,42.805,6.029,-0.053,0.005,-0.004,105.0,106.0,102.0,13.4,1505.3,326.3,-0.7,1.8,2470.311,13.33,0.053,275.4
2020-08-05T03:43:03,42.805,6.029,-0.067,-0.005,-0.04,105.0,107.0,101.0,13.4,1505.3,326.8,-0.7,1.8,2470.287,13.33,0.067,265.7
2020-08-05T03:46:03,42.805,6.029,-0.09,-0.005,-0.003,104.0,107.0,102.0,13.4,1505.3,326.6,-0.7,1.9,2470.272,13.33,0.09,266.8
2020-08-05T03:49:03,42.805,6.029,-0.066,0.009,-0.01,105.0,105.0,102.0,13.4,1505.3,326.4,-0.7,1.8,2470.299,13.33,0.066,277.8
2020-08-05T03:52:03,42.805,6.029,-0.055,-0.005,0.004,105.0,106.0,101.0,13.3,1505.3,326.1,-0.7,1.8,2470.271,13.32,0.055,264.8
2020-08-05T03:55:03,42.805,6.029,-0.029,-0.006,-0.019,105.0,105.0,102.0,13.4,1505.3,324.2,-0.8,1.8,2470.268,13.32,0.029,258.3
2020-08-05T03:58:03,42.805,6.029,-0.044,0.015,-0.022,104.0,106.0,104.0,13.4,1505.3,324.3,-0.7,1.8,2470.265,13.33,0.046,288.8
2020-08-05T04:04:03,42.805,6.029,-0.033,-0.009,-0.014,104.0,107.0,102.0,13.4,1505.3,322.7,-0.7,1.8,2470.311,13.31,0.034,254.7
2020-08-05T04:07:03,42.805,6.029,-0.036,0.019,0.008,104.0,107.0,101.0,13.4,1505.3,326.8,-0.7,1.8,2470.267,13.31,0.04,297.8
2020-08-05T04:10:03,42.805,6.029,-0.069,0.003,-0.005,104.0,105.0,102.0,13.3,1505.3,324.8,-0.7,1.8,2470.29,13.32,0.069,272.5
2020-08-05T04:13:03,42.805,6.029,-0.061,-0.007,-0.014,104.0,107.0,101.0,13.3,1505.3,326.9,-0.7,1.8,2470.251,13.32,0.061,263.5
2020-08-05T04:16:03,42.805,6.029,-0.061,0.0,-0.031,104.0,108.0,101.0,13.4,1505.3,324.9,-0.7,1.8,2470.339,13.32,0.06,270.0
2020-08-05T04:19:03,42.805,6.029,-0.07,0.018,-0.006,104.0,106.0,102.0,13.3,1505.3,327.8,-0.7,1.8,2470.274,13.32,0.072,284.4
2020-08-05T04:22:03,42.805,6.029,-0.07,-0.018,-0.014,104.0,106.0,101.0,13.4,1505.3,327.6,-0.7,1.9,2470.285,13.33,0.072,255.6
2020-08-05T04:25:03,42.805,6.029,-0.047,0.002,-0.005,105.0,105.0,102.0,13.4,1505.3,326.5,-0.7,1.9,2470.3,13.33,0.047,272.4
2020-08-05T04:28:03,42.805,6.029,-0.063,0.021,0.0,104.0,107.0,101.0,13.4,1505.3,323.9,-0.7,1.8,2470.286,13.33,0.066,288.4
2020-08-05T04:31:03,42.805,6.029,-0.059,0.005,-0.027,106.0,105.0,101.0,13.4,1505.3,323.6,-0.7,1.8,2470.271,13.33,0.059,274.8
2020-08-05T04:34:03,42.805,6.029,-0.055,0.001,-0.006,104.0,107.0,102.0,13.4,1505.3,326.7,-0.7,1.8,2470.31,13.33,0.055,271.0
2020-08-05T04:37:03,42.805,6.029,-0.052,0.0,-0.012,104.0,106.0,101.0,13.4,1505.3,325.8,-0.7,1.8,2470.304,13.33,0.052,270.0
2020-08-05T04:40:03,42.805,6.029,-0.08,-0.001,-0.015,104.0,106.0,102.0,13.3,1505.3,326.0,-0.7,1.8,2470.283,13.33,0.08,269.3
2020-08-05T04:43:03,42.805,6.029,-0.067,0.014,-0.032,105.0,106.0,102.0,13.4,1505.3,327.8,-0.7,1.9,2470.281,13.33,0.068,281.8
2020-08-05T04:46:03,42.805,6.029,-0.044,-0.016,-0.021,104.0,106.0,101.0,13.4,1505.3,326.1,-0.7,1.8,2470.309,13.33,0.046,250.0
2020-08-05T04:49:03,42.805,6.029,-0.083,0.009,0.004,106.0,106.0,101.0,13.4,1505.3,328.6,-0.7,1.8,2470.299,13.33,0.083,276.2
2020-08-05T04:52:03,42.805,6.029,-0.064,0.007,-0.02,104.0,106.0,101.0,13.4,1505.3,325.0,-0.7,1.8,2470.324,13.33,0.064,276.2
2020-08-05T04:55:03,42.805,6.029,-0.061,-0.005,-0.002,105.0,106.0,102.0,13.3,1505.3,324.5,-0.7,1.8,2470.297,13.33,0.061,265.3
2020-08-05T04:58:03,42.805,6.029,-0.085,0.004,-0.051,103.0,107.0,102.0,13.4,1505.3,325.7,-0.7,1.8,2470.321,13.33,0.085,272.7
2020-08-05T05:04:03,42.805,6.029,-0.075,-0.001,-0.034,104.0,106.0,103.0,13.4,1505.3,326.3,-0.8,1.8,2470.359,13.31,0.075,269.2
2020-08-05T05:07:03,42.805,6.029,-0.066,0.002,-0.016,105.0,107.0,101.0,13.4,1505.3,324.0,-0.7,1.8,2470.319,13.31,0.066,271.7
2020-08-05T05:10:03,42.805,6.029,-0.038,0.01,-0.015,104.0,107.0,101.0,13.4,1505.3,326.8,-0.7,1.8,2470.341,13.32,0.039,284.7
2020-08-05T05:13:03,42.805,6.029,-0.076,0.006,0.011,104.0,108.0,101.0,13.4,1505.3,324.3,-0.7,1.9,2470.368,13.32,0.076,274.5
2020-08-05T05:16:03,42.805,6.029,-0.065,0.022,-0.015,105.0,107.0,102.0,13.4,1505.3,326.0,-0.7,1.8,2470.331,13.32,0.068,288.7
2020-08-05T05:19:03,42.805,6.029,-0.039,0.0,0.003,105.0,107.0,101.0,13.4,1505.3,326.9,-0.7,1.8,2470.333,13.32,0.039,270.0
2020-08-05T05:22:03,42.805,6.029,-0.056,0.004,0.008,104.0,105.0,102.0,13.4,1505.3,324.0,-0.7,1.9,2470.326,13.33,0.056,274.1
2020-08-05T05:25:03,42.805,6.029,-0.045,0.011,-0.017,104.0,107.0,102.0,13.4,1505.3,327.4,-0.7,1.8,2470.339,13.33,0.046,283.7
2020-08-05T05:28:03,42.805,6.029,-0.062,0.007,0.004,105.0,107.0,100.0,13.4,1505.3,325.9,-0.7,1.8,2470.328,13.33,0.062,276.4
2020-08-05T05:31:03,42.805,6.029,-0.028,0.027,0.053,104.0,106.0,101.0,13.4,1505.3,328.1,-0.8,1.9,2470.292,13.33,0.038,314.0
2020-08-05T05:34:03,42.805,6.029,-0.09,0.001,-0.035,105.0,108.0,100.0,13.4,1505.3,324.2,-0.7,1.8,2470.377,13.33,0.089,270.6
2020-08-05T05:37:03,42.805,6.029,-0.05,-0.026,-0.031,104.0,106.0,102.0,13.4,1505.3,326.2,-0.7,1.8,2470.343,13.33,0.056,242.5
2020-08-05T05:40:03,42.805,6.029,-0.045,0.013,-0.006,103.0,106.0,102.0,13.4,1505.3,326.7,-0.7,1.8,2470.358,13.33,0.046,286.1
2020-08-05T05:43:03,42.805,6.029,-0.055,0.001,-0.009,103.0,105.0,102.0,13.4,1505.3,323.1,-0.7,1.8,2470.32,13.33,0.055,271.0
2020-08-05T05:46:03,42.805,6.029,-0.081,0.0,-0.013,104.0,106.0,101.0,13.4,1505.3,325.0,-0.7,1.8,2470.378,13.33,0.08,270.0
2020-08-05T05:49:03,42.805,6.029,-0.049,0.007,-0.011,104.0,105.0,103.0,13.4,1505.3,323.5,-0.7,1.9,2470.28,13.33,0.049,278.1
2020-08-05T05:52:03,42.805,6.029,-0.058,0.026,-0.02,104.0,106.0,101.0,13.4,1505.3,327.7,-0.8,1.8,2470.377,13.33,0.063,294.1
2020-08-05T05:55:03,42.805,6.029,-0.068,-0.015,-0.041,104.0,106.0,102.0,13.4,1505.3,324.8,-0.7,1.9,2470.355,13.33,0.069,257.6
2020-08-05T05:58:03,42.805,6.029,-0.057,0.011,0.006,104.0,106.0,101.0,13.3,1505.3,326.4,-0.7,1.8,2470.336,13.33,0.058,280.9
2020-08-05T06:04:03,42.805,6.029,-0.051,0.002,-0.015,104.0,107.0,103.0,13.4,1505.3,325.0,-0.7,1.8,2470.384,13.31,0.051,272.2
2020-08-05T06:07:03,42.805,6.029,-0.044,0.003,-0.014,104.0,106.0,101.0,13.4,1505.3,326.1,-0.7,1.8,2470.369,13.31,0.044,273.9
2020-08-05T06:10:03,42.805,6.029,-0.052,-0.017,0.002,105.0,106.0,102.0,13.3,1505.3,326.8,-0.7,1.8,2470.389,13.32,0.054,251.9
2020-08-05T06:13:03,42.805,6.029,-0.061,-0.005,-0.008,105.0,105.0,101.0,13.4,1505.3,323.8,-0.7,1.8,2470.325,13.32,0.061,265.3
2020-08-05T06:16:03,42.805,6.029,-0.058,-0.007,-0.012,104.0,107.0,101.0,13.4,1505.3,327.2,-0.7,1.8,2470.346,13.32,0.058,263.1
2020-08-05T06:19:03,42.805,6.029,-0.057,-0.017,-0.035,104.0,107.0,101.0,13.4,1505.3,324.8,-0.7,1.8,2470.357,13.32,0.059,253.4
2020-08-05T06:22:03,42.805,6.029,-0.067,-0.002,-0.018,105.0,107.0,102.0,13.4,1505.3,324.8,-0.7,1.9,2470.406,13.33,0.067,268.3
2020-08-05T06:25:03,42.805,6.029,-0.069,-0.001,-0.029,104.0,107.0,102.0,13.3,1505.3,327.5,-0.7,1.9,2470.413,13.33,0.069,269.2
2020-08-05T06:28:03,42.805,6.029,-0.071,-0.017,-0.003,105.0,107.0,101.0,13.3,1505.3,327.9,-0.7,1.8,2470.365,13.33,0.073,256.5
2020-08-05T06:31:03,42.805,6.029,-0.076,-0.008,-0.015,104.0,107.0,102.0,13.4,1505.3,325.3,-0.7,1.8,2470.333,13.33,0.076,264.0
2020-08-05T06:34:03,42.805,6.029,-0.08,0.021,-0.003,104.0,107.0,101.0,13.4,1505.3,324.8,-0.7,1.8,2470.382,13.33,0.082,284.7
2020-08-05T06:37:03,42.805,6.029,-0.077,0.0,-0.028,105.0,106.0,102.0,13.4,1505.3,325.5,-0.7,1.8,2470.337,13.33,0.076,270.0
2020-08-05T06:40:03,42.805,6.029,-0.062,0.015,-0.005,104.0,108.0,103.0,13.4,1505.3,326.1,-0.7,1.8,2470.378,13.33,0.063,283.6
2020-08-05T06:43:03,42.805,6.029,-0.08,0.014,-0.039,103.0,107.0,101.0,13.4,1505.3,324.0,-0.8,1.8,2470.373,13.33,0.081,279.9
2020-08-05T06:46:03,42.805,6.029,-0.06,0.003,0.001,104.0,105.0,101.0,13.4,1505.3,326.7,-0.7,1.8,2470.348,13.33,0.06,272.9
2020-08-05T06:49:03,42.805,6.029,-0.06,0.006,0.029,104.0,105.0,101.0,13.3,1505.3,325.4,-0.7,1.8,2470.376,13.33,0.06,275.7
2020-08-05T06:52:03,42.805,6.029,-0.082,0.011,-0.015,104.0,106.0,101.0,13.4,1505.3,327.9,-0.7,1.8,2470.349,13.33,0.082,277.6
2020-08-05T06:55:03,42.805,6.029,-0.064,0.005,-0.018,103.0,107.0,101.0,13.4,1505.3,325.0,-0.7,1.9,2470.357,13.33,0.064,274.5
2020-08-05T06:58:03,42.805,6.029,-0.068,0.007,-0.006,105.0,106.0,101.0,13.4,1505.3,323.3,-0.7,1.8,2470.364,13.33,0.068,275.9
2020-08-05T07:04:03,42.805,6.029,-0.076,0.025,0.003,104.0,107.0,101.0,13.4,1505.3,328.3,-0.7,1.8,2470.411,13.31,0.08,288.2
2020-08-05T07:07:03,42.805,6.029,-0.064,0.021,0.007,105.0,106.0,102.0,13.4,1505.3,322.5,-0.7,1.8,2470.412,13.31,0.067,288.2
2020-08-05T07:10:03,42.805,6.029,-0.051,-0.007,-0.035,102.0,109.0,102.0,13.3,1505.3,323.2,-0.7,1.8,2470.407,13.32,0.051,262.2
2020-08-05T07:13:03,42.805,6.029,-0.067,0.004,-0.03,104.0,108.0,100.0,13.4,1505.3,326.7,-0.7,1.8,2470.415,13.32,0.067,273.4
2020-08-05T07:16:03,42.805,6.029,-0.043,0.008,0.009,106.0,108.0,102.0,13.4,1505.3,327.2,-0.7,1.8,2470.416,13.32,0.043,280.5
2020-08-05T07:19:03,42.805,6.029,-0.088,-0.006,-0.028,104.0,107.0,102.0,13.3,1505.3,325.0,-0.7,1.8,2470.367,13.32,0.088,266.1
2020-08-05T07:22:03,42.805,6.029,-0.047,0.021,0.008,104.0,108.0,102.0,13.4,1505.3,327.0,-0.7,1.8,2470.44,13.33,0.051,294.1
2020-08-05T07:25:03,42.805,6.029,-0.043,-0.004,-0.012,104.0,106.0,101.0,13.4,1505.3,325.3,-0.7,1.8,2470.369,13.33,0.043,264.7
2020-08-05T07:28:03,42.805,6.029,-0.087,-0.018,-0.038,104.0,106.0,102.0,13.3,1505.3,323.6,-0.7,1.8,2470.415,13.33,0.088,258.3
2020-08-05T07:31:03,42.805,6.029,-0.099,0.008,-0.016,104.0,107.0,101.0,13.4,1505.3,323.3,-0.7,1.8,2470.391,13.33,0.099,274.6
2020-08-05T07:34:03,42.805,6.029,-0.067,0.018,0.013,104.0,105.0,102.0,13.4,1505.3,326.6,-0.7,1.8,2470.378,13.33,0.069,285.0
2020-08-05T07:37:03,42.805,6.029,-0.098,0.011,-0.021,104.0,106.0,101.0,13.4,1505.3,326.0,-0.7,1.9,2470.386,13.33,0.098,276.4
2020-08-05T07:40:03,42.805,6.029,-0.071,0.04,0.0,105.0,106.0,101.0,13.4,1505.3,327.6,-0.7,1.8,2470.393,13.33,0.081,299.4
2020-08-05T07:43:03,42.805,6.029,-0.037,0.022,0.009,105.0,107.0,101.0,13.4,1505.3,325.7,-0.7,1.8,2470.387,13.33,0.043,300.7
2020-08-05T07:46:03,42.805,6.029,-0.058,0.022,0.0,104.0,109.0,101.0,13.4,1505.3,326.3,-0.7,1.8,2470.392,13.33,0.062,290.8
2020-08-05T07:49:03,42.805,6.029,-0.071,0.008,-0.047,105.0,106.0,101.0,13.3,1505.3,326.0,-0.7,1.9,2470.413,13.33,0.071,276.4
2020-08-05T07:52:03,42.805,6.029,-0.076,0.025,0.001,104.0,107.0,101.0,13.3,1505.3,326.1,-0.7,1.8,2470.376,13.33,0.08,288.2
2020-08-05T07:55:03,42.805,6.029,-0.067,0.003,-0.005,105.0,107.0,102.0,13.4,1505.3,327.2,-0.7,1.8,2470.405,13.33,0.067,272.6
2020-08-05T07:58:03,42.805,6.029,-0.067,0.034,0.018,105.0,107.0,101.0,13.4,1505.3,326.6,-0.7,1.8,2470.392,13.33,0.075,296.9
2020-08-05T08:04:03,42.805,6.029,-0.061,0.002,0.024,105.0,108.0,101.0,13.4,1505.3,324.5,-0.7,1.8,2470.436,13.31,0.061,271.9
2020-08-05T08:07:03,42.805,6.029,-0.059,0.017,-0.021,105.0,109.0,100.0,13.4,1505.3,325.2,-0.7,1.8,2470.427,13.31,0.061,286.1
2020-08-05T08:10:03,42.805,6.029,-0.043,0.022,0.007,105.0,106.0,102.0,13.3,1505.3,325.2,-0.7,1.8,2470.448,13.32,0.048,297.1
2020-08-05T08:13:03,42.805,6.029,-0.078,0.013,0.0,105.0,108.0,100.0,13.4,1505.3,322.9,-0.7,1.8,2470.417,13.32,0.079,279.5
2020-08-05T08:16:03,42.805,6.029,-0.051,0.03,0.014,105.0,108.0,101.0,13.4,1505.3,326.5,-0.7,1.8,2470.416,13.32,0.059,300.5
2020-08-05T08:19:03,42.805,6.029,-0.068,0.037,0.014,103.0,107.0,101.0,13.4,1505.3,327.8,-0.7,1.8,2470.386,13.32,0.077,298.6
2020-08-05T08:22:03,42.805,6.029,-0.076,0.008,-0.014,104.0,107.0,101.0,13.4,1505.3,326.2,-0.7,1.8,2470.406,13.32,0.076,276.0
2020-08-05T08:25:03,42.805,6.029,-0.07,0.009,-0.004,104.0,106.0,100.0,13.3,1505.3,324.9,-0.7,1.8,2470.409,13.32,0.07,277.3
2020-08-05T08:28:03,42.805,6.029,-0.097,0.019,-0.034,104.0,107.0,101.0,13.4,1505.3,323.3,-0.7,1.8,2470.379,13.33,0.098,281.1
2020-08-05T08:31:03,42.805,6.029,-0.077,0.019,0.007,104.0,107.0,102.0,13.4,1505.3,322.8,-0.7,1.8,2470.422,13.33,0.079,283.9
2020-08-05T08:34:03,42.805,6.029,-0.072,0.016,-0.014,103.0,107.0,101.0,13.3,1505.3,323.2,-0.7,1.8,2470.409,13.33,0.073,282.5
2020-08-05T08:37:03,42.805,6.029,-0.079,0.02,0.001,104.0,106.0,101.0,13.4,1505.3,323.7,-0.7,1.8,2470.418,13.33,0.081,284.2
2020-08-05T08:40:03,42.805,6.029,-0.095,0.009,-0.049,103.0,106.0,101.0,13.4,1505.3,324.0,-0.7,1.8,2470.421,13.33,0.095,275.4
2020-08-05T08:43:03,42.805,6.029,-0.058,0.025,0.007,104.0,107.0,102.0,13.3,1505.3,326.5,-0.7,1.8,2470.397,13.33,0.063,293.3
2020-08-05T08:46:03,42.805,6.029,-0.052,0.025,0.01,104.0,107.0,101.0,13.4,1505.3,326.8,-0.7,1.8,2470.405,13.33,0.057,295.7
2020-08-05T08:49:03,42.805,6.029,-0.061,0.034,0.013,104.0,107.0,101.0,13.4,1505.3,325.8,-0.7,1.8,2470.397,13.33,0.069,299.1
2020-08-05T08:52:03,42.805,6.029,-0.052,0.002,0.009,104.0,109.0,101.0,13.4,1505.3,326.2,-0.7,1.9,2470.347,13.33,0.052,272.2
2020-08-05T08:55:03,42.805,6.029,-0.065,0.026,0.032,104.0,108.0,101.0,13.4,1505.3,323.5,-0.7,1.9,2470.395,13.33,0.07,291.8
2020-08-05T08:58:03,42.805,6.029,-0.076,0.0,-0.038,105.0,107.0,102.0,13.4,1505.3,324.7,-0.7,1.8,2470.334,13.33,0.075,270.0
2020-08-05T09:04:03,42.805,6.029,-0.075,0.015,-0.037,105.0,106.0,102.0,13.4,1505.3,327.1,-0.7,1.8,2470.421,13.31,0.076,281.3
2020-08-05T09:07:03,42.805,6.029,-0.04,0.01,0.007,105.0,107.0,101.0,13.4,1505.3,324.9,-0.7,1.8,2470.436,13.31,0.041,284.0
2020-08-05T09:10:03,42.805,6.029,-0.043,0.017,0.011,105.0,107.0,102.0,13.4,1505.3,323.6,-0.7,1.8,2470.401,13.32,0.046,291.6
2020-08-05T09:13:03,42.805,6.029,-0.077,0.022,-0.019,104.0,107.0,101.0,13.4,1505.3,324.8,-0.7,1.8,2470.38,13.32,0.08,285.9
2020-08-05T09:16:03,42.805,6.029,-0.054,0.01,-0.019,105.0,106.0,102.0,13.4,1505.3,324.8,-0.7,1.8,2470.369,13.32,0.054,280.5
2020-08-05T09:19:03,42.805,6.029,-0.059,0.025,-0.005,103.0,109.0,101.0,13.4,1505.3,323.2,-0.6,1.8,2470.427,13.32,0.064,293.0
2020-08-05T09:22:03,42.805,6.029,-0.041,-0.004,0.024,104.0,107.0,101.0,13.3,1505.3,324.9,-0.7,1.8,2470.402,13.32,0.041,264.4
2020-08-05T09:25:03,42.805,6.029,-0.033,0.004,-0.006,104.0,106.0,101.0,13.4,1505.3,325.7,-0.7,1.8,2470.38,13.32,0.033,276.9
2020-08-05T09:28:03,42.805,6.029,-0.05,0.003,-0.017,104.0,108.0,101.0,13.4,1505.3,322.9,-0.7,1.8,2470.38,13.33,0.05,273.4
2020-08-05T09:31:03,42.805,6.029,-0.065,0.017,-0.005,103.0,108.0,101.0,13.4,1505.3,326.4,-0.7,1.8,2470.403,13.32,0.067,284.7
2020-08-05T09:34:03,42.805,6.029,-0.077,0.017,-0.026,104.0,108.0,101.0,13.4,1505.3,326.4,-0.7,1.8,2470.37,13.32,0.078,282.4
2020-08-05T09:37:03,42.805,6.029,-0.088,0.028,-0.013,104.0,108.0,100.0,13.3,1505.3,326.3,-0.7,1.9,2470.362,13.32,0.092,287.6
2020-08-05T09:40:03,42.805,6.029,-0.073,0.02,-0.021,104.0,110.0,102.0,13.4,1505.3,324.9,-0.7,1.9,2470.347,13.32,0.075,285.3
2020-08-05T09:43:03,42.805,6.029,-0.058,0.01,-0.025,104.0,108.0,101.0,13.4,1505.3,325.0,-0.7,1.8,2470.368,13.32,0.058,279.8
2020-08-05T09:46:03,42.805,6.029,-0.066,0.034,-0.018,103.0,108.0,101.0,13.4,1505.3,327.8,-0.7,1.8,2470.354,13.32,0.074,297.3
2020-08-05T09:49:03,42.805,6.029,-0.032,0.009,0.035,104.0,107.0,100.0,13.4,1505.3,326.1,-0.7,1.8,2470.351,13.33,0.033,285.7
2020-08-05T09:52:03,42.805,6.029,-0.053,0.011,0.018,103.0,108.0,101.0,13.4,1505.3,327.6,-0.7,1.8,2470.367,13.33,0.054,281.7